User: anonymous   Login
Location: Coleto Creek Park and Reservoir
(28.7196°N, 97.1740°W)
Time: 13:30:18
(UTC-05:00)
Language:

Hubble Space Telescope - Orbit

View from above orbital plane
View from above orbital plane
View from above satellite
View from above satellite

Ground track
Ground track

The orbit data is extracted from the following two-line orbital elements,

1 20580U 90037B   15149.57222572  .00001461  00000-0  82679-4 0  9994
2 20580 028.4702 276.8790 0003148 042.0491 050.3513 15.07415687176998
Epoch (UTC): 29 May 2015 13:44:00
Eccentricity: 0.0003148
inclination: 28.4702°
perigee height: 542 km
apogee height: 546 km
right ascension of ascending node: 276.8790°
argument of perigee: 42.0491°
revolutions per day: 15.07415687
mean anomaly at epoch: 50.3513°
orbit number at epoch: 17699

The dashed part of the orbit path shows where the satellite is in the earth's shadow,  

DLR